sat.trackr.live / text

‹ back to catalog

GPS BIIR-8 (PRN 16)

NORAD 27663 · 2003-005A

PAYLOAD ACTIVE UNKNOWN

§ Identity

Operator
Country
US
Launch date
2003-01-29
Launch site
AFETR
Launch vehicle
Mass (kg)
RCS (m²)
10.00

Purposes: earth_obs, nav

External: N2YO · Heavens-Above · Gunter

§ Orbital elements

Epoch: 2026-09-17T20:36:16.192800Z

Period
718.01 min
Inclination
54.8679°
Eccentricity
0.0150561
Mean motion
2.00555608 rev/d
Perigee alt
19,783.0 km
Apogee alt
20,582.8 km
Semi-major
26,561.1 km
B*
0.0000e+0
RAAN
211.2898°
Arg perigee
53.6734°
Mean anomaly
317.9316°
Rev number
17,317

§ Raw data

GPS BIIR-8  (PRN 16)1 27663U 03005A   26260.85852075  .00000017  00000+0  00000+0 0  99942 27663  54.8679 211.2898 0150561  53.6734 317.9316  2.00555608173172

JSON: /api/v1/satellites/27663 · /tle

For live sub-satellite position, see the globe view (requires WebGL).

§ Visibility from observer

Set your observer location to see the next 7 days of passes ≥ 10°. The values pass through the URL so the page stays shareable.

No JS? Fill the form by hand. The geolocation button needs JavaScript.